sat.trackr.live / text

‹ back to catalog

STARLINK-36805

NORAD 68116 · 2026-044R

PAYLOAD ACTIVE UNKNOWN

§ Identity

Operator
Country
US
Launch date
2026-03-08
Launch site
AFWTR
Launch vehicle
Mass (kg)
RCS (m²)

Purposes: comms

External: N2YO · Heavens-Above · Gunter

§ Orbital elements

Epoch: 2026-05-24T21:32:20.847264Z

Period
93.91 min
Inclination
97.2849°
Eccentricity
0.0001525
Mean motion
15.33454942 rev/d
Perigee alt
464.5 km
Apogee alt
466.6 km
Semi-major
6,843.7 km
B*
4.9128e-4
RAAN
105.5541°
Arg perigee
96.9018°
Mean anomaly
263.2398°
Rev number
1,326

§ Raw data

STARLINK-368051 68116U 26044R   26144.89746351  .00015824  00000+0  49128-3 0  99942 68116  97.2849 105.5541 0001525  96.9018 263.2398 15.33454942 13265

JSON: /api/v1/satellites/68116 · /tle

For live sub-satellite position, see the globe view (requires WebGL).

§ Visibility from observer

Set your observer location to see the next 7 days of passes ≥ 10°. The values pass through the URL so the page stays shareable.

No JS? Fill the form by hand. The geolocation button needs JavaScript.